Overview Statistics Trail Chart Weather Telemetry Raw packets
 

This is the latest recevied weather packets stored in our database for station/object DJ2KUA-6. If no packets are shown the sender has not sent any weather packets the latest 10 day(s).

<< 9 10 11 12 13 14 15 >>
Time Temp. Humidity Pressure Rain* Wind** Luminosity Snow
1788312777 13.89° C 83% 1073 hPa 0 mm - - -
1788311638 13.89° C 82% 1073 hPa 0 mm - - -
1788310498 14.44° C 81% 1073 hPa 0 mm - - -
1788309357 14.44° C 80% 1073 hPa 0 mm - - -
1788308218 15° C 80% 1073 hPa 0 mm - - -
1788305939 15.56° C 79% 1073 hPa 0 mm - - -
1788304853 15.56° C 80% 1073 hPa 0 mm - - -
1788304799 15.56° C 80% 1073 hPa 0 mm - - -
1788303660 15.56° C 80% 1074 hPa 0 mm - - -
1788301379 15.56° C 77% 1074 hPa 0 mm - - -
1788300239 16.11° C 75% 1073 hPa 0 mm - - -
1788299099 16.67° C 74% 1073 hPa 0 mm - - -
1788297960 16.67° C 73% 1074 hPa 0 mm - - -
1788296818 17.22° C 72% 1073 hPa 0 mm - - -
1788294539 17.78° C 69% 1073 hPa 0 mm - - -
1788293398 17.78° C 69% 1073 hPa 0 mm - - -
1788292258 18.33° C 67% 1073 hPa 0 mm - - -
1788291119 18.89° C 67% 1073 hPa 0 mm - - -
1788289978 19.44° C 65% 1073 hPa 0 mm - - -
1788287698 20.56° C 60% 1073 hPa 0 mm - - -
1788286558 21.67° C 58% 1073 hPa 0 mm - - -
1788285419 22.22° C 55% 1072 hPa 0 mm - - -
1788284279 23.33° C 53% 1072 hPa 0 mm - - -
1788283138 23.89° C 51% 1072 hPa 0 mm - - -
1788281998 24.44° C 49% 1072 hPa 0 mm - - -

* Rain latest hour (hover to see other rain measurements)
** Current wind speed in m/s (hover to see current wind gust speed)